Helicity
50 52 51 44 38 29 22 24 27 25 22 23 25 31 27 24 25 27 48 138 94 97 161 102 96 98 111 114 119 158 122 69 28 67 86 83 69 67 100 64 23 27 75 40 120
52 52 48 46 41 36 35 32 30 27 22 23 21 22 16 10 13 16 94 96 102 110 109 112 93 119 143 111 165 172 112 40 43 43 80 54 66 48 75 53 22 22 79 75 151
58 55 51 44 40 40 33 20 13 11 16 24 27 26 14 -8 47 156 35 98 104 83 112 161 166 117 127 128 114 98 69 92 74 130 70 79 64 89 95 71 24 -6 83 71 166
62 61 54 45 37 36 31 22 22 24 31 40 47 44 13 28 151 152 172 194 116 58 108 118 165 165 168 153 120 129 96 153 138 174 218 148 68 62 69 97 94 44 79 106 181
60 60 57 47 43 41 44 45 39 42 52 61 71 89 53 84 101 183 148 125 146 138 152 158 126 150 133 147 129 136 105 104 162 121 76 72 118 43 89 72 19 66 57 99 150
59 65 59 48 38 39 36 43 37 30 42 70 94 108 87 95 170 124 132 93 64 73 100 103 154 116 154 127 122 92 101 108 84 82 48 45 53 91 73 68 10 17 29 70 104
66 65 63 50 39 30 22 12 25 21 46 89 107 94 94 70 103 57 27 28 52 28 49 62 70 189 149 153 119 137 110 86 74 70 88 75 63 129 63 42 52 21 20 41 52
63 55 49 44 39 28 19 23 23 30 81 107 118 121 123 128 53 12 22 23 37 14 -7 83 106 154 206 149 140 113 128 122 85 77 86 113 61 42 75 68 66 23 38 29 47
52 41 40 47 42 27 34 40 18 70 111 124 112 126 121 92 90 74 44 37 86 50 43 56 147 141 143 151 109 102 104 104 111 79 113 107 85 57 84 110 82 78 57 37 54
38 33 32 33 26 6 17 13 64 76 83 65 118 118 103 193 114 55 25 36 45 99 92 43 100 132 154 162 118 67 90 68 101 130 89 107 89 43 92 105 99 91 56 63 83
31 18 21 17 18 -8 14 -1 8 51 97 101 123 119 93 144 10 56 59 48 39 97 30 29 47 107 101 95 68 33 38 102 111 144 67 73 64 83 79 75 93 66 51 44 40
21 12 9 12 11 3 9 39 76 100 99 41 82 114 69 71 55 77 62 36 75 52 33 121 30 27 54 59 110 127 90 71 97 115 74 54 37 75 61 23 70 67 59 40 63
19 11 5 17 5 41 58 107 84 56 95 101 179 180 150 59 51 59 62 74 53 46 66 51 3 -36 72 99 114 124 125 79 86 128 65 72 51 27 35 48 52 32 10 47 76
13 6 15 18 36 67 88 93 52 40 179 288 197 182 109 112 65 38 20 56 66 45 21 43 3 25 22 36 62 102 102 98 132 55 126 108 110 67 45 67 61 68 42 67 61
18 32 38 48 63 89 101 57 54 49 413 260 262 117 134 106 98 72 41 25 16 14 40 29 10 12 27 33 31 110 47 114 124 83 84 15 129 38 80 68 88 101 65 78 73
39 82 48 63 70 101 64 52 67 255 463 481 207 333 215 117 99 40 42 56 32 50 -1 -15 23 -4 5 6 26 54 83 71 128 178 198 78 110 89 104 67 61 91 74 86 65
68 85 84 61 97 61 84 116 259 454 518 624 352 202 69 66 117 22 71 123 124 89 52 36 3 10 26 17 30 93 91 186 187 186 108 94 53 127 20 53 43 91 78 48 62
102 79 83 67 68 44 65 139 411 665 600 269 228 107 80 148 121 175 164 111 91 246 15 4 31 16 31 68 41 105 68 142 131 121 111 43 136 102 50 35 34 82 70 19 77
78 94 110 87 36 15 38 411 486 438 246 171 71 145 56 84 62 76 114 100 102 183 176 94 23 25 28 37 23 4 114 33 76 93 107 131 106 44 39 55 42 52 48 35 49
48 89 158 -33 23 50 254 301 248 133 75 56 110 52 15 61 57 89 112 0 60 105 218 181 69 37 19 26 30 8 2 115 174 139 122 90 67 122 77 86 53 55 72 37 39
63 79 80 2 16 102 92 38 16 -11 23 19 9 -16 14 70 72 106 62 -49 -83 120 228 224 91 23 18 56 55 78 43 82 101 113 134 109 83 45 11 42 58 67 38 55 63
42 -14 21 -20 90 -91 -29 -44 -40 -20 -7 23 18 6 19 31 60 73 41 21 -83 19 225 194 104 89 31 22 19 31 62 38 156 145 194 122 81 229 134 46 30 63 48 70 65
-59 -13 10 -66 -128 -43 -30 4 27 0 19 28 32 36 -17 -12 41 62 72 54 -4 33 190 248 175 103 41 60 93 32 57 36 70 109 172 183 130 67 118 122 127 71 50 66 87
-67 -76 -54 -43 -55 -25 -59 -16 4 42 30 31 38 47 -20 5 -14 49 115 16 27 -27 33 185 181 93 141 59 53 72 68 82 58 173 163 151 60 94 131 186 102 119 75 40 49
-167 -134 -138 -107 -71 -31 -35 -14 -14 4 44 36 34 26 -15 -23 36 38 53 72 25 -24 20 69 170 84 240 214 186 37 67 83 57 73 119 94 75 103 115 143 123 77 57 70 45
-150 -130 -101 -61 -43 -10 12 9 24 11 57 63 103 67 72 52 22 84 126 82 54 27 34 134 147 206 117 94 114 174 205 48 63 82 48 72 82 134 143 112 119 225 53 61 75
-85 -41 -101 -34 -26 6 20 12 19 45 70 58 111 114 86 42 13 49 111 112 134 159 151 204 294 225 103 102 55 200 332 206 197 192 139 118 153 193 206 164 178 212 213 257 263
Wind_Speed
53 55 56 58 58 55 51 51 52 51 49 48 49 53 57 61 65 51 47 45 47 51 55 49 46 38 37 42 38 47 83 105 97 89 88 63 64 52 47 50 39 38 39 23 21
56 57 58 59 58 56 53 51 51 53 50 49 49 51 56 61 65 56 42 41 45 49 50 51 47 39 43 48 48 62 89 104 80 75 79 67 61 57 52 50 43 40 28 15 24
58 59 60 60 59 58 57 53 53 51 49 50 49 50 54 60 59 45 24 43 48 42 44 48 53 51 55 52 53 53 105 80 84 67 69 69 68 50 52 50 47 44 29 22 24
60 62 63 62 61 61 59 57 55 52 49 49 49 47 52 51 64 42 35 52 47 39 45 47 51 55 62 65 58 75 72 72 68 60 68 84 71 61 62 46 42 38 30 29 29
63 64 66 65 63 65 65 62 60 56 53 48 43 43 48 52 54 41 44 45 42 45 54 57 57 60 73 69 65 75 70 58 62 65 73 85 85 66 67 57 42 30 35 36 32
66 68 69 67 66 68 67 63 64 60 55 45 37 36 45 63 43 38 39 50 57 54 55 57 59 62 76 81 76 63 74 63 54 75 78 85 102 80 67 56 44 39 39 40 36
68 70 71 69 69 69 65 60 60 62 52 42 32 33 45 50 39 38 44 47 47 48 57 54 58 67 63 75 80 74 71 73 68 72 79 72 90 103 76 60 51 47 46 44 41
70 72 71 69 70 68 62 56 58 50 44 39 29 34 47 34 41 45 41 43 41 40 47 53 50 68 78 70 64 82 77 83 73 65 75 71 94 84 76 67 58 52 50 45 43
70 72 71 70 70 66 65 69 51 38 39 33 36 38 47 34 42 48 36 42 41 41 43 44 47 63 65 79 81 80 98 95 79 64 63 91 96 85 72 74 68 59 55 47 42
70 72 70 66 63 64 69 59 44 36 34 36 38 40 34 41 55 50 42 34 41 40 43 42 53 67 80 85 110 98 102 86 88 62 70 79 97 80 72 77 74 65 62 51 46
71 71 65 61 59 58 62 51 55 45 46 45 46 43 41 50 55 39 39 35 30 27 43 38 59 87 90 95 103 95 85 95 78 59 67 90 84 82 77 83 84 71 69 58 54
73 70 63 57 56 50 51 57 56 52 64 49 38 32 34 40 49 41 33 32 25 27 23 38 77 86 84 92 96 95 90 89 63 70 65 81 88 83 77 80 80 79 74 63 53
71 65 58 57 50 47 52 54 50 54 60 55 38 34 37 39 46 51 26 35 30 28 24 38 67 72 86 89 96 97 94 81 80 63 66 67 92 92 82 82 79 76 73 61 55
71 61 56 60 44 55 51 50 56 40 67 57 42 36 36 58 40 37 32 39 31 31 18 37 75 69 85 96 92 100 81 76 64 68 87 72 84 93 89 86 88 91 79 66 56
67 59 56 53 52 56 56 56 45 43 87 55 43 39 61 52 55 39 43 39 32 24 17 32 54 68 85 93 88 97 76 72 69 71 74 80 92 85 85 96 91 86 79 71 60
57 62 54 51 49 56 56 47 40 62 79 57 48 71 69 54 58 50 59 46 43 41 22 21 42 61 71 77 75 63 72 82 66 64 87 77 92 85 93 98 91 82 77 72 66
55 54 64 56 64 57 48 43 67 73 74 72 76 81 71 66 63 54 64 51 47 46 19 16 37 54 73 74 66 83 74 81 85 84 98 85 89 77 75 86 86 74 67 65 68
47 56 72 61 62 50 44 54 75 77 77 81 81 81 69 61 60 65 61 51 40 57 59 22 45 61 67 75 69 86 84 81 93 101 91 73 91 97 52 64 69 67 68 59 60
38 54 80 78 67 46 52 75 75 80 78 86 84 69 60 61 62 59 50 41 39 46 47 47 61 40 77 68 72 76 95 71 84 66 78 74 67 70 72 58 60 66 67 72 68
46 48 89 77 67 57 67 71 66 73 75 71 74 57 59 64 59 58 48 31 41 46 48 46 52 48 68 68 73 67 79 85 73 88 85 86 80 65 66 57 56 66 62 69 73
48 56 85 75 62 74 82 74 71 70 68 65 66 56 56 64 60 53 42 40 39 47 45 48 45 49 63 74 70 71 78 78 66 67 81 76 81 62 58 55 47 49 49 58 70
63 61 77 64 86 77 85 79 67 74 63 55 47 55 58 64 55 49 44 44 37 43 42 37 45 48 64 67 65 65 73 77 76 72 66 64 56 44 52 55 48 49 54 55 57
60 62 72 73 90 91 79 83 70 74 64 57 45 46 62 56 50 48 46 46 39 42 37 37 43 50 63 59 64 71 71 76 61 50 59 66 52 36 40 43 45 58 67 57 55
57 62 65 77 79 88 86 88 86 68 58 54 41 27 62 54 46 51 54 41 41 30 32 36 48 40 54 56 65 75 69 73 74 69 61 51 40 37 38 43 45 49 61 73 76
61 65 63 83 86 88 82 89 90 82 58 46 43 22 61 55 52 47 48 46 37 28 31 30 46 41 45 48 53 67 76 63 72 74 73 51 35 34 37 40 44 51 51 60 67
64 63 64 72 77 85 89 92 88 79 60 52 44 29 50 51 52 56 51 46 39 35 31 30 41 40 40 39 36 34 39 79 55 51 61 40 31 29 28 28 27 26 39 46 60
60 57 60 75 77 84 87 83 80 70 57 47 33 28 38 42 48 55 56 53 50 44 36 34 35 38 38 35 33 34 29 32 34 30 43 50 39 29 25 23 27 26 30 34 39
Wind_Direction
333 335 337 340 343 353 359 358 355 353 354 353 350 345 338 332 327 328 320 318 312 304 301 294 291 288 270 265 261 271 255 249 251 252 250 249 249 256 261 259 258 256 261 261 175
336 336 340 343 347 353 356 358 355 351 352 352 350 347 342 337 329 323 323 321 316 311 294 285 279 277 270 261 263 257 254 251 258 257 248 244 249 251 253 250 253 255 257 195 175
337 336 339 346 350 351 354 357 354 353 352 350 349 347 344 340 334 332 348 330 319 313 303 288 278 271 266 265 252 256 250 260 257 258 250 242 243 249 248 248 251 246 236 197 189
335 335 341 347 351 351 352 353 353 352 350 347 346 347 344 344 328 338 336 326 323 312 301 293 275 264 264 258 258 259 261 257 257 254 245 241 241 245 246 256 257 247 231 214 208
335 334 338 344 349 348 345 347 348 348 347 345 345 348 345 336 326 336 324 323 323 307 293 284 274 264 260 262 260 254 257 257 257 252 245 237 236 240 245 252 255 241 232 225 210
336 335 337 344 348 345 345 347 344 346 346 346 347 350 343 330 343 339 330 316 306 300 291 280 274 269 264 258 254 262 254 256 253 247 244 239 236 241 247 247 244 241 237 228 217
339 336 336 342 345 346 347 347 347 346 349 352 353 350 337 332 346 340 328 323 316 301 286 280 275 266 265 260 255 255 254 251 250 246 242 241 240 237 243 241 238 241 241 235 229
342 337 341 345 346 348 350 351 347 350 357 1 3 353 338 347 345 334 331 322 319 314 299 282 276 264 260 259 258 247 250 246 245 244 239 235 238 237 237 235 237 240 240 236 230
345 341 342 344 346 349 352 347 354 5 5 13 0 349 340 354 341 337 332 321 317 314 309 295 271 262 256 249 246 242 242 242 244 239 241 237 240 240 236 233 237 237 236 234 227
348 344 344 350 353 352 350 356 7 10 11 1 358 350 346 344 335 331 328 323 313 309 306 289 269 257 249 241 236 237 239 243 239 239 233 240 238 239 232 229 233 236 234 233 227
346 347 351 355 356 357 357 4 359 357 355 344 333 326 329 338 331 339 339 329 315 303 295 286 266 250 245 242 242 244 243 239 240 241 236 237 239 239 230 232 233 233 232 231 232
345 348 354 358 357 2 4 3 1 354 340 338 329 326 326 341 334 339 344 332 325 296 293 294 265 256 249 243 240 240 237 237 241 237 239 236 236 234 233 231 229 230 232 231 230
348 354 358 359 1 6 3 3 2 354 343 347 353 351 353 344 331 327 343 331 320 304 290 284 276 259 243 239 235 233 233 235 236 235 237 238 235 233 231 232 228 230 234 231 226
351 358 2 359 7 0 1 0 354 1 342 347 355 1 349 336 331 335 330 319 318 305 286 296 271 256 238 234 230 229 233 234 236 229 231 233 235 231 228 229 229 229 231 228 225
356 4 5 9 1 359 356 355 2 1 337 354 353 355 340 334 326 332 331 320 306 299 310 303 282 249 236 230 228 229 229 232 235 233 233 231 234 231 228 227 227 226 228 229 226
5 8 10 8 5 0 357 0 3 346 336 349 346 341 335 334 323 315 315 313 305 303 266 264 295 249 235 231 228 228 226 229 233 234 231 229 228 233 225 225 226 226 226 227 226
12 16 9 9 357 356 1 2 346 340 349 342 338 336 329 322 319 314 307 306 300 296 272 248 280 253 231 229 226 222 220 216 222 226 227 229 229 233 232 228 228 224 225 224 225
21 18 7 10 3 6 9 356 343 347 344 340 338 333 328 332 315 308 299 293 308 291 278 278 261 238 228 227 221 217 216 215 216 222 224 229 231 229 242 234 231 228 227 223 222
25 15 6 6 9 16 5 355 351 350 347 343 341 339 335 329 318 302 296 289 300 304 276 276 255 243 227 228 221 217 219 221 225 234 228 228 238 235 236 240 227 225 221 222 221
24 20 5 8 15 20 12 3 359 357 352 353 350 350 339 331 315 293 281 294 288 296 280 264 255 239 223 223 224 215 215 217 228 220 223 226 231 235 230 232 227 222 219 221 221
23 18 8 15 27 23 13 8 4 4 5 3 358 355 348 325 302 282 273 275 293 289 280 258 249 235 220 218 216 214 217 223 229 228 223 226 232 237 232 230 224 218 212 216 218
26 20 14 26 21 18 14 11 9 7 11 12 14 7 350 311 295 275 267 261 286 292 270 262 245 236 220 218 221 222 219 217 219 221 229 233 230 243 240 232 232 224 221 219 213
27 28 27 29 17 17 18 14 14 9 11 14 18 17 339 306 291 270 265 262 274 283 267 273 237 228 215 217 225 218 219 218 224 231 225 226 234 256 244 237 235 228 221 217 216
30 22 24 27 26 19 16 14 12 18 16 18 22 36 313 300 283 257 253 247 280 270 281 271 233 240 219 219 216 216 218 221 224 224 221 230 236 246 245 241 241 232 223 219 219
33 30 31 20 22 21 20 17 14 15 22 28 25 17 302 292 275 251 243 249 255 257 278 281 226 242 238 230 220 216 217 220 221 225 228 233 246 253 251 247 245 236 227 222 221
37 33 33 29 26 22 21 18 18 19 25 25 17 306 289 271 261 244 237 233 237 245 278 266 229 235 224 214 206 211 230 220 229 232 232 228 243 269 265 255 246 238 226 224 221
41 43 37 29 26 22 20 19 20 23 31 23 17 315 291 277 256 240 229 226 229 240 249 245 230 219 209 207 197 214 240 221 222 240 239 223 244 265 260 255 246 243 235 236 237